User: anonymous   Login
Location: Antioch
(38.0049°N, 121.8058°W)
Time: 06:14:35
(UTC+00:00)
Language:

OAO 2 Rocket - Orbit

View from above orbital plane
View from above orbital plane
View from above satellite
View from above satellite

Ground track
Ground track

The orbit is defined by the following mean orbital elements,

1 03598U          26100.50902744 +.00000000 +00000-0 +89642-4 0 00001
2 03598  34.9907 133.9140 0046080  96.6695 263.9247 14.57613711    08
Epoch (UTC): 10 April 2026 12:12:59
Eccentricity: 0.0046080
inclination: 34.9907°
perigee height: 668 km
apogee height: 734 km
right ascension of ascending node: 133.9140°
argument of perigee: 96.6695°
revolutions per day: 14.57613711
mean anomaly at epoch: 263.9247°

The dashed part of the orbit path shows where the satellite is in the earth's shadow,  

DLR